This demonstration page uses our WeatherBlox Daily Observations layout. Learn more.

Left ArrowRight Arrow

44.8408, -93.29828

Hourly Observations for December 22, 2017

Temp ( °F °C ) Dew Point ( °F °C ) Humidity (%) Winds ( mph kmh ) Pressure ( in mb ) Visibility ( mi km ) Precip ( " mm )
12:53 am 00:53 Cloudy 21 -6.1 16 -8.9 81 81 N 7 11 30.14 1021 10 16 0.00 0.00
1:53 am 01:53 Cloudy 19 -7.2 15 -9.4 84 84 N 10 17 30.14 1021 10 16 0.00 0.00
2:42 am 02:42 Mostly Cloudy 18 -7.8 15 -9.4 88 88 NNW 6 9 30.15 1021 10 16 0.00 0.00
2:53 am 02:53 Cloudy 18 -7.8 15 -9.4 88 88 NNW 6 9 30.14 1021 10 16 0.00 0.00
3:53 am 03:53 Cloudy 18 -7.8 15 -9.4 88 88 NW 7 11 30.14 1021 10 16 0.00 0.00
4:53 am 04:53 Cloudy 19 -7.2 15 -9.4 84 84 WNW 5 7 30.14 1021 10 16 0.00 0.00
5:53 am 05:53 Cloudy 19 -7.2 15 -9.4 84 84 NW 6 9 30.14 1021 10 16 0.00 0.00
6:19 am 06:19 Cloudy 19 -7.2 15 -9.4 84 84 NW 5 7 30.15 1021 10 16 0.00 0.00
6:50 am 06:50 Cloudy 19 -7 16 -9 86 86 NNW 5 7 30.18 1022 10 16 0.00 0.00
6:53 am 06:53 Cloudy 19 -7.2 15 -9.4 84 84 NNW 6 9 30.15 1021 10 16 0.00 0.00
7:53 am 07:53 Cloudy 19 -7.2 15 -9.4 84 84 NW 5 7 30.15 1021 10 16 0.00 0.00
8:53 am 08:53 Cloudy 19 -7.2 15 -9.4 84 84 WNW 7 11 30.16 1021 10 16 0.00 0.00
9:05 am 09:05 Cloudy 19 -7.2 15 -9.4 84 84 NW 6 9 30.18 1022 10 16 0.00 0.00
9:53 am 09:53 Mostly Cloudy 20 -6.7 15 -9.4 81 81 SW 6 9 30.16 1022 10 16 0.00 0.00
10:12 am 10:12 Mostly Cloudy 20 -6.7 15 -9.4 81 81 W 7 11 30.18 1022 10 16 0.00 0.00
10:44 am 10:44 Mostly Cloudy 21 -6.1 15 -9.4 78 78 VRB 6 9 30.18 1022 10 16 0.00 0.00
10:53 am 10:53 Mostly Cloudy 21 -6.1 15 -9.4 78 78 WSW 6 9 30.17 1022 10 16 0.00 0.00
11:53 am 11:53 Partly Cloudy 23 -5 16 -8.9 74 74 W 6 9 30.15 1021 10 16 0.00 0.00
12:53 pm 12:53 Mostly Cloudy 23 -5 14 -10 68 68 W 8 13 30.14 1021 10 16 0.00 0.00
1:53 pm 13:53 Partly Cloudy 25 -3.9 13 -10.6 60 60 Calm 30.12 1020 10 16 0.00 0.00
2:53 pm 14:53 Partly Cloudy 26 -3.3 11 -11.7 53 53 W 9 15 30.11 1020 10 16 0.00 0.00
3:53 pm 15:53 Mostly Cloudy 25 -3.9 10 -12.2 53 53 WSW 6 9 30.12 1020 10 16 0.00 0.00
4:53 pm 16:53 Mostly Cloudy 25 -3.9 10 -12.2 53 53 WSW 7 11 30.12 1020 10 16 0.00 0.00
5:53 pm 17:53 Partly Cloudy 24 -4.4 11 -11.7 57 57 SW 7 11 30.13 1020 10 16 0.00 0.00
6:53 pm 18:53 Mostly Cloudy 23 -5 12 -11.1 63 63 SW 12 19 30.13 1020 10 16 0.00 0.00
7:53 pm 19:53 Mostly Cloudy 21 -6.1 12 -11.1 68 68 WSW 8 13 30.15 1021 10 16 0.00 0.00
8:15 pm 20:15 Mostly Cloudy 21 -6.1 13 -10.6 71 71 W 8 13 30.15 1021 10 16 0.00 0.00
8:53 pm 20:53 Cloudy 23 -5 14 -10 68 68 W 6 9 30.15 1021 10 16 0.00 0.00
9:53 pm 21:53 Cloudy 24 -4.4 16 -8.9 71 71 NNW 14 22 30.16 1022 10 16 0.00 0.00
10:53 pm 22:53 Cloudy 22 -5.6 15 -9.4 75 75 NW 14 22 30.18 1022 10 16 0.00 0.00
11:53 pm 23:53 Cloudy 20 -6.7 13 -10.6 74 74 WNW 15 24 30.20 1023 10 16 0.00 0.00

Powered by AerisWeather